Houston Hull, TX

1:31 PM CST on November 18, 2019 (GMT -0600)
Sugar Land Municipal-Hull

Weather History for KSGR - September, 2019

Change the Weather History Date:

Sunday, September 29, 2019

  Actual Average Record
Temperature  
Mean Temperature 85 °F -  
Max Temperature 91 °F 85 °F 97 °F (2011)
Min Temperature 79 °F 63 °F 48 °F (1967)
Cooling Degree Days 20    
Growing Degree Days 35 (Base 50)    
Moisture  
Dew Point 76 °F    
Average Humidity 77    
Maximum Humidity 94    
Minimum Humidity 57    
Precipitation  
Precipitation 0.00 in - - ()
Sea Level Pressure  
Sea Level Pressure 30.00 in    
Wind  
Wind Speed 11 mph (SE)    
Max Wind Speed 16 mph    
Max Gust Speed 23 mph    
Visibility 10 miles    
Events      
Averages and records for this station are not official NWS values.
T = Trace of Precipitation, MM = Missing Value Source: NWS Daily Summary

Daily Weather History Graph

Daily Weather History Graph

Search for Another Location

Airport or City:

Astronomy

Sep. 29, 2019 Rise Set
Actual Time 7:14 AM CDT 7:10 PM CDT
Civil Twilight 6:50 AM CDT 7:34 PM CDT
Nautical Twilight 6:23 AM CDT 8:02 PM CDT
Astronomical Twilight 5:55 AM CDT 8:29 PM CDT
Moon 8:06 AM CDT (9/29) 8:15 PM CDT (9/29)
Length of Visible Light 12h 43m
Length of Day
11h 56m
New Moon, 1% of the Moon is Illuminated
Sep 29
New Moon
Oct 5
First Quarter
Oct 13
Full
Oct 21
Last Quarter
Oct 27
New

Hourly Weather History & Observations

Time (CDT) Temp. Heat Index Dew Point Humidity Pressure Visibility Wind Dir Wind Speed Gust Speed Precip Events Conditions
12:53 AM 82.0 °F 91.6 °F 79.0 °F 90% 29.98 in 10.0 mi SE 11.5 mph - N/A   Clear
1:53 AM 81.0 °F 87.3 °F 75.9 °F 85% 29.98 in 10.0 mi SE 12.7 mph - N/A   Clear
2:53 AM 80.1 °F 85.1 °F 75.0 °F 85% 29.98 in 10.0 mi SSE 12.7 mph 20.7 mph N/A   Mostly Cloudy
3:53 AM 80.1 °F 85.4 °F 75.9 °F 87% 29.97 in 10.0 mi SE 8.1 mph - N/A   Partly Cloudy
4:53 AM 80.1 °F 85.8 °F 77.0 °F 90% 29.97 in 10.0 mi SE 6.9 mph - N/A   Clear
5:53 AM 80.1 °F 85.8 °F 77.0 °F 90% 29.98 in 10.0 mi ESE 6.9 mph - N/A   Clear
6:53 AM 79.0 °F - 77.0 °F 94% 30.00 in 10.0 mi ESE 4.6 mph - N/A   Clear
7:53 AM 80.1 °F 85.8 °F 77.0 °F 90% 30.01 in 10.0 mi ESE 5.8 mph - N/A   Mostly Cloudy
8:53 AM 82.9 °F 92.8 °F 78.1 °F 85% 30.02 in 10.0 mi ESE 5.8 mph - N/A   Clear
9:53 AM 84.9 °F 96.6 °F 78.1 °F 80% 30.04 in 10.0 mi SSE 11.5 mph 19.6 mph N/A   Overcast
10:02 AM 84.9 °F 96.6 °F 78.1 °F 80% 30.04 in 10.0 mi SSE 12.7 mph - N/A   Mostly Cloudy
10:53 AM 87.1 °F 98.8 °F 77.0 °F 72% 30.05 in 10.0 mi SE 10.4 mph - N/A   Scattered Clouds
11:53 AM 90.0 °F 101.3 °F 75.9 °F 63% 30.04 in 10.0 mi SSE 10.4 mph - N/A   Scattered Clouds
12:53 PM 91.0 °F 100.4 °F 73.9 °F 57% 30.03 in 10.0 mi SE 15.0 mph - N/A   Scattered Clouds
1:53 PM 91.0 °F 101.6 °F 75.0 °F 59% 29.99 in 10.0 mi SSE 15.0 mph - N/A   Partly Cloudy
2:53 PM 91.9 °F 103.2 °F 75.0 °F 58% 29.97 in 10.0 mi SSE 16.1 mph 23.0 mph N/A   Scattered Clouds
3:53 PM 90.0 °F 100.2 °F 75.0 °F 61% 29.97 in 10.0 mi SSE 16.1 mph - N/A   Mostly Cloudy
4:53 PM 90.0 °F 100.2 °F 75.0 °F 61% 29.97 in 10.0 mi SE 15.0 mph - N/A   Partly Cloudy
5:53 PM 88.0 °F 96.5 °F 73.9 °F 63% 29.96 in 10.0 mi SE 12.7 mph - N/A   Partly Cloudy
6:53 PM 84.9 °F 91.4 °F 73.0 °F 67% 29.98 in 10.0 mi SE 13.8 mph - N/A   Clear
7:53 PM 82.9 °F 90.2 °F 75.0 °F 77% 29.98 in 10.0 mi ESE 10.4 mph - N/A   Clear
8:53 PM 82.0 °F 88.6 °F 75.0 °F 79% 30.00 in 10.0 mi SE 10.4 mph - N/A   Clear
9:53 PM 82.0 °F 89.4 °F 75.9 °F 82% 30.02 in 10.0 mi ESE 5.8 mph - N/A   Clear
10:53 PM 81.0 °F 87.3 °F 75.9 °F 85% 30.02 in 10.0 mi ESE 6.9 mph - N/A   Clear
11:53 PM 80.1 °F 85.4 °F 75.9 °F 87% 30.03 in 10.0 mi ESE 6.9 mph - N/A   Clear